SCP
2 2 2 2 2 2 2 1 1 1 1 1 1 0 0 0 1 1 1 1 1 1 2 2 3 2 2 1 2 2 2 2 2 2 2 1 1 1 1 1 1 0 0
2 2 2 2 2 2 1 1 1 1 1 1 1 0 0 0 1 1 1 0 1 1 2 2 3 3 2 2 2 2 2 2 2 2 2 2 1 1 2 1 1 0 0
2 2 2 2 2 2 1 1 1 1 1 1 1 1 0 0 1 1 1 1 0 1 1 2 2 3 3 2 2 2 2 2 2 2 2 2 2 2 2 2 1 1 0
2 2 2 2 2 2 1 1 1 1 1 1 1 1 0 0 1 1 1 1 1 0 1 1 2 3 3 3 2 2 2 2 2 2 2 2 2 2 2 2 1 1 1
2 1 1 1 2 2 1 1 1 1 1 1 1 0 0 0 0 1 1 1 1 1 1 1 2 2 3 3 3 3 2 2 2 2 2 2 3 3 3 2 2 1 1
1 1 1 1 1 1 1 1 1 1 1 1 0 0 0 0 0 1 1 1 1 1 1 1 1 1 2 3 3 3 2 2 2 2 2 2 2 3 3 3 2 1 1
0 0 0 1 1 1 1 1 0 1 1 1 0 0 0 0 0 0 1 1 1 1 1 1 1 1 1 2 2 2 2 2 2 2 2 2 2 2 3 3 2 2 1
0 0 0 1 1 0 0 0 0 0 1 0 0 0 0 0 0 1 1 1 1 1 1 1 1 1 1 1 1 2 2 2 2 2 2 2 2 2 2 2 3 2 2
0 0 0 0 0 0 0 0 0 0 1 0 0 0 0 0 0 1 1 1 1 1 1 1 0 0 1 1 1 1 1 2 2 2 2 2 1 1 1 2 2 2 2
0 0 0 0 0 0 0 0 0 0 0 0 0 0 0 0 0 1 1 1 1 1 1 0 0 0 0 1 1 1 1 1 2 2 2 2 2 1 1 1 2 2 2
0 0 0 0 0 0 0 0 0 0 0 0 0 0 0 0 0 0 1 1 1 1 1 0 0 0 0 1 1 1 1 1 2 2 2 2 2 1 1 1 1 2 2
0 0 0 0 0 0 0 0 0 0 0 0 0 0 0 0 0 0 0 1 1 1 1 0 0 0 0 1 0 0 0 1 1 2 2 2 2 1 1 1 1 1 2
0 0 0 0 0 0 0 0 0 0 0 0 0 0 0 0 0 0 0 1 1 1 0 0 0 0 1 1 0 0 0 0 1 1 1 1 1 1 1 1 1 1 1
0 0 0 0 0 0 0 0 0 0 0 0 0 0 0 0 0 0 0 0 0 0 0 0 0 0 1 0 0 0 0 0 0 1 1 1 1 1 1 0 0 0 0
0 0 0 0 0 0 0 0 0 0 0 0 0 0 0 0 0 0 0 0 0 0 0 0 0 0 0 0 0 0 0 0 0 0 0 0 0 0 0 0 0 0 0
0 0 0 0 0 0 0 0 0 0 0 0 0 0 0 0 0 0 0 0 0 0 0 0 0 0 0 0 0 0 0 0 0 0 0 0 0 0 0 0 0 0 0
0 0 0 0 0 0 0 0 0 0 0 0 0 0 0 0 0 0 1 1 0 0 0 0 0 0 0 0 0 0 0 0 0 0 0 0 0 0 0 0 0 0 0
0 0 0 0 0 0 0 0 0 0 0 0 0 0 0 0 0 1 1 1 0 0 0 0 0 0 0 0 0 0 0 0 0 0 0 0 0 0 0 0 0 0 0
0 0 0 0 0 0 0 0 0 0 0 0 0 0 0 0 0 1 1 0 0 0 0 0 0 0 0 0 0 0 0 0 0 0 0 0 0 0 0 0 0 0 0
0 0 0 0 0 0 0 0 0 0 0 0 0 0 0 0 0 1 0 0 0 0 0 0 0 0 0 0 0 0 0 0 0 0 0 0 0 0 0 0 0 0 0
0 0 0 0 0 0 0 0 0 0 0 0 0 0 0 0 0 0 0 0 0 0 0 0 0 0 0 0 0 0 0 0 0 0 0 0 0 0 0 0 0 0 0
0 0 0 0 0 0 0 0 0 0 0 0 0 0 0 0 0 0 0 0 0 0 0 0 0 0 0 0 0 0 0 0 0 0 0 0 0 0 0 0 0 0 0
0 0 0 0 0 0 0 0 0 0 0 0 0 0 0 0 0 0 0 0 0 0 0 0 0 0 0 0 0 0 0 0 0 0 0 0 0 0 0 0 0 0 0
0 0 0 0 0 0 0 0 0 0 0 0 0 0 0 0 0 0 0 0 0 0 0 0 0 0 0 0 0 0 0 0 0 0 0 0 0 0 0 0 0 0 0
0 0 0 0 0 0 0 0 0 0 0 0 0 0 0 0 0 0 0 0 0 0 0 0 0 0 0 0 0 0 0 0 0 0 0 0 0 0 0 0 0 0 0
0 0 0 0 0 0 0 0 0 0 0 0 0 0 0 0 0 0 0 0 0 0 0 0 0 0 0 0 0 0 0 0 0 0 0 0 0 0 0 0 0 0 0
Wind_Speed
2 2 2 1 1 1 2 2 2 3 3 3 3 3 4 4 4 4 3 9 10 12 13 13 14 14 15 15 16 16 16 15 15 14 13 12 11 10 9 8 7 6 5
2 2 2 2 2 2 2 2 3 3 3 3 3 4 4 4 4 5 4 6 9 11 13 14 14 14 15 16 16 16 16 16 16 15 14 13 12 11 10 9 7 7 5
3 3 3 2 2 2 2 2 3 2 3 3 3 4 4 4 4 5 5 4 5 9 12 14 14 14 15 15 16 16 17 17 16 16 15 14 13 12 11 10 9 7 6
4 3 3 3 3 2 2 2 2 2 3 3 3 3 3 4 5 5 5 5 4 5 8 12 13 14 15 15 15 16 17 18 17 16 16 15 14 13 12 11 10 9 8
5 3 3 4 3 2 2 3 2 2 3 3 4 4 3 4 5 5 6 6 5 5 5 8 11 13 14 15 15 16 16 17 17 17 16 16 15 15 14 12 11 10 9
5 4 4 5 3 3 3 3 3 3 3 3 4 4 4 4 4 5 5 5 5 6 5 5 6 8 11 13 15 15 15 16 17 18 17 16 16 16 15 14 13 12 10
5 4 5 4 4 4 4 4 3 3 3 2 2 3 4 4 5 4 4 4 5 5 5 5 4 4 5 11 13 15 16 16 17 17 18 17 16 16 16 15 14 13 12
5 5 5 4 4 4 5 4 3 3 3 2 1 1 2 3 3 4 4 4 5 4 5 6 5 5 4 4 7 13 15 16 17 17 17 18 17 16 16 15 15 14 13
5 5 5 5 5 5 5 5 5 5 4 3 3 3 2 3 3 3 5 5 5 4 5 5 6 6 5 4 5 9 13 15 17 17 17 17 17 17 16 16 16 15 14
6 6 6 6 6 5 5 6 5 5 5 4 3 4 4 3 3 3 3 4 5 6 6 5 5 6 6 5 6 9 12 14 16 17 17 16 16 17 17 16 16 15 14
6 6 7 6 6 5 6 7 6 6 5 6 5 4 4 5 5 4 5 4 4 5 6 6 5 6 6 6 6 8 11 12 15 16 17 16 16 16 17 16 15 15 13
5 6 7 6 7 6 7 8 7 8 7 7 6 5 5 5 5 5 6 5 5 5 5 5 6 6 6 6 7 10 11 11 13 13 14 14 15 15 15 16 14 14 13
5 6 7 6 7 7 8 8 8 8 9 9 8 7 6 7 5 5 5 5 4 4 4 4 6 6 6 5 6 10 10 11 12 12 12 12 12 13 13 12 13 12 12
6 7 7 7 8 8 9 8 8 9 8 9 10 9 7 7 6 6 6 4 5 5 4 5 3 6 5 5 7 9 8 11 11 11 11 11 11 11 11 11 10 10 9
6 7 8 8 8 8 9 9 8 9 8 9 9 9 8 7 6 6 6 6 6 7 8 4 3 5 5 5 7 6 6 10 11 10 10 10 10 10 10 10 9 9 7
7 7 8 8 8 8 9 9 8 8 9 9 8 9 9 7 6 6 6 6 6 6 8 5 4 4 5 5 8 6 6 10 11 11 10 10 10 10 10 10 9 8 8
7 8 8 9 9 9 9 8 9 9 10 10 10 10 11 9 7 6 6 6 6 5 7 6 4 4 5 6 5 5 5 5 6 10 10 10 9 9 10 10 9 9 8
8 8 8 9 9 9 8 8 9 9 10 11 11 10 10 8 9 8 7 7 7 6 6 8 5 4 5 6 5 5 4 4 5 8 10 10 10 10 10 10 10 9 9
8 8 8 8 9 8 8 8 9 9 10 10 10 10 10 10 10 8 8 8 6 6 5 7 6 4 4 4 4 4 3 3 3 6 8 9 9 9 10 10 9 9 8
8 8 8 8 8 8 8 8 8 8 9 9 9 10 10 10 11 10 8 8 6 6 6 6 6 4 4 4 4 4 3 2 2 2 3 4 6 7 9 10 10 9 9
8 7 8 7 7 7 7 7 7 8 8 9 9 9 10 12 13 11 8 7 7 6 6 5 5 4 4 4 5 4 3 2 1 2 2 2 3 3 4 7 8 9 9
7 7 7 7 7 7 11 13 10 7 7 8 8 8 9 10 13 14 15 14 12 9 9 7 6 7 6 5 3 4 4 3 2 2 3 2 2 2 2 2 6 8 8
7 7 7 6 7 8 13 13 13 8 6 6 6 6 6 7 10 8 9 11 11 13 13 9 8 9 7 6 5 5 5 3 2 3 3 1 1 2 1 3 7 8 8
6 6 6 6 6 8 12 13 13 8 6 6 6 6 7 7 8 8 6 6 7 7 8 6 6 6 6 5 6 5 4 3 2 1 2 2 1 1 1 1 6 8 8
6 6 6 6 6 8 11 12 10 4 5 6 6 6 7 7 9 9 7 6 5 4 4 5 6 5 6 7 7 5 5 5 2 1 1 2 2 1 1 1 2 6 6
6 6 6 5 6 6 9 11 10 4 4 4 4 4 7 8 9 9 7 6 6 5 3 3 3 3 3 5 7 6 6 6 3 2 2 3 2 2 2 1 1 2 3
Wind_Direction
302 295 297 290 294 305 291 289 292 279 268 269 258 247 234 229 224 224 228 224 224 225 225 223 217 213 211 209 205 201 197 194 192 192 191 188 186 187 185 185 187 187 186
289 280 282 275 272 272 279 270 274 274 255 253 257 254 245 236 229 228 228 225 227 228 228 226 222 218 215 212 210 206 201 199 197 195 194 192 192 192 192 192 195 195 197
278 275 265 262 259 264 275 282 280 285 269 259 256 258 252 241 239 231 226 222 223 227 230 230 227 222 220 216 213 211 206 202 201 198 197 196 197 196 197 198 200 202 205
263 270 270 260 254 254 257 266 265 277 278 262 261 260 256 248 241 233 226 223 223 228 228 232 232 228 225 221 217 216 211 205 202 202 201 200 199 200 201 202 204 206 209
255 250 264 262 247 243 245 264 264 245 269 277 267 259 254 255 246 237 228 222 222 225 223 228 232 231 229 226 222 220 217 211 206 204 205 204 203 203 204 206 207 210 213
254 248 256 262 247 241 247 246 254 252 249 265 277 272 262 257 252 237 227 224 222 223 221 224 225 230 230 233 229 225 223 216 211 209 207 208 207 206 207 209 210 213 214
255 247 258 255 249 240 238 240 246 251 251 248 280 288 281 257 251 244 233 223 221 221 214 217 221 228 228 230 231 229 228 224 217 215 210 209 210 211 210 212 213 213 215
255 259 254 251 247 244 242 235 228 246 252 217 202 259 296 292 255 246 235 227 226 219 219 220 219 223 227 226 230 231 231 230 226 219 215 213 211 213 214 214 214 215 216
248 252 257 258 251 237 239 236 221 233 241 234 198 205 228 250 284 247 230 228 223 226 224 218 221 224 224 227 230 228 231 232 231 226 220 218 216 215 216 216 215 216 218
247 245 247 253 250 238 238 239 234 224 223 236 225 224 231 239 243 276 257 234 226 226 224 232 226 224 223 224 230 232 231 232 231 232 225 222 222 222 219 218 217 215 215
249 247 244 246 247 239 238 240 237 229 221 226 226 227 238 239 232 238 258 249 243 227 219 221 219 221 221 221 224 227 231 234 233 234 228 226 226 227 224 219 219 214 214
255 249 251 248 249 240 235 236 233 229 227 229 229 222 223 223 221 227 241 240 249 250 229 220 219 220 221 218 225 226 228 236 236 234 230 227 229 231 229 222 218 216 215
267 260 257 253 252 245 240 238 236 233 227 227 231 229 229 232 226 231 236 245 261 277 252 232 220 218 222 213 218 217 223 233 236 234 230 226 226 231 228 226 219 220 218
262 260 259 259 256 251 247 239 239 237 231 227 235 232 233 235 226 226 226 230 254 277 263 241 227 218 216 211 214 215 221 229 233 231 229 223 222 222 221 223 216 216 220
263 261 260 263 261 255 250 242 242 242 237 230 233 232 233 237 230 228 225 215 224 254 266 247 232 219 215 210 210 210 216 224 228 227 225 218 216 214 213 214 207 207 209
266 266 264 264 260 256 253 246 244 243 239 236 232 232 235 237 232 226 223 223 224 233 256 254 247 229 218 232 222 214 217 225 224 222 221 213 208 204 205 202 197 199 200
266 265 264 264 262 258 253 248 245 246 242 242 238 234 235 231 230 230 224 224 226 224 246 266 255 226 219 218 220 210 212 220 213 212 216 209 203 200 199 195 194 195 196
269 267 266 264 260 258 252 247 248 247 243 242 239 234 237 234 229 227 226 225 225 222 229 252 255 232 232 213 207 206 220 229 213 208 212 206 200 198 194 191 191 190 192
274 272 269 264 262 259 257 250 248 249 248 245 240 233 234 231 233 230 228 228 225 228 222 231 244 239 238 213 198 214 218 221 215 207 203 196 193 193 189 187 188 183 184
277 274 273 267 264 262 261 256 250 249 253 249 242 235 233 231 231 228 230 227 222 222 223 223 231 233 231 207 193 198 213 210 210 203 190 179 179 184 183 183 182 180 180
281 279 279 276 271 267 263 260 256 254 255 253 247 239 234 236 238 234 233 222 214 215 218 219 222 231 227 200 205 194 201 192 204 184 155 158 157 166 173 178 178 176 176
284 283 279 277 276 276 281 279 273 261 257 252 250 243 236 236 241 241 241 237 227 219 215 214 220 219 227 208 200 186 179 178 213 167 142 153 145 164 174 180 173 170 171
286 285 279 275 274 277 283 285 282 276 263 255 251 245 244 239 243 227 231 237 237 237 232 222 215 217 217 203 184 189 188 186 200 166 131 175 141 155 172 177 168 166 164
290 286 282 277 276 280 288 290 286 279 266 259 252 246 241 238 233 223 216 224 229 232 231 226 217 222 216 197 188 190 174 132 90 90 132 153 153 140 130 161 161 157 159
299 292 291 287 282 285 290 290 289 279 271 263 257 252 241 235 235 232 223 221 225 235 231 207 197 197 198 191 177 158 159 150 156 177 109 128 136 100 78 113 143 146 149
297 300 299 294 284 283 287 292 293 277 274 270 262 252 247 242 238 244 225 210 213 216 192 157 154 166 188 178 180 184 176 166 158 170 170 136 144 126 107 48 94 118 131